Regional Weather Roundup
Issued by NWS Columbia, SC

Home | Current Version | Previous Version | Text Only | Print | Product List | Glossary On
Versions: 1 2 3 4 5 6 7 8 9 10 11 12 13 14 15 16 17 18 19 20 21 22 23 24 25 26 27 28 29 30 31 32 33 34 35 36 37 38 39 40 41 42 43 44 45 46 47 48 49 50
000
ASUS42 KCAE 011610
RWRCAE
REGIONAL WEATHER ROUNDUP
NATIONAL WEATHER SERVICE COLUMBIA SC
1200 PM EDT FRI AUG 01 2014

NOTE: "FAIR" INDICATES FEW OR NO CLOUDS BELOW 12,000 FEET WITH NO
SIGNIFICANT WEATHER AND/OR OBSTRUCTIONS TO VISIBILITY.

NOT ALL STATIONS ARE QUALITY CONTROLLED BY THE NATIONAL
WEATHER SERVICE. USE DATA WITH CAUTION...ESPECIALLY
DEWPOINT OBSERVATIONS.

SCZ001>056-GAZ040-063>065-077-011700-
...UPSTATE SOUTH CAROLINA...

CITY           SKY/WX    TMP DP  RH WIND       PRES   REMARKS
ANDERSON       CLOUDY    70  64  81 NE12      30.11S
LIBERTY        DRIZZLE   70  32  24 NE8G16    30.12S
SPARTANBURG    RAIN      68  68 100 NE12G18   30.11F
CLEMSON        CLOUDY    74  63  68 NE10G22   30.13S
GREENVILLE     CLOUDY    69  62  78 NE14G28   30.13S
GREENWOOD      CLOUDY    69  65  86 N6        30.12S
GREER          CLOUDY    68  64  87 N15       30.11F
ROCK HILL      CLOUDY    69  66  90 NE7       30.11R
CHESTER        CLOUDY    72  72 100 NE7       30.10S
LAURENS        CLOUDY    70 N/A N/A N9        30.11S


...CENTRAL SOUTH CAROLINA...

CITY           SKY/WX    TMP DP  RH WIND       PRES   REMARKS
COLUMBIA APT   PTSUNNY   82  69  64 CALM      30.05F
COLUMBIA OWENS PTSUNNY   80  70  71 VRB5      30.07S
DARLINGTON     CLOUDY    77  72  83 CALM      30.07S
FLORENCE       CLOUDY    81  73  76 E8        30.05R
MCENTIRE ANGB  CLOUDY    78  72  80 VRB2      30.06S
ORANGEBURG     CLOUDY    78  71  79 N8        30.05S
SUMTER SHAW    PTSUNNY   77  74  89 NE6       30.04S
NEWBERRY       CLOUDY    70  70 100 N7        30.12S
AIKEN          FAIR      77  73  88 N6        30.09F
BARNWELL       CLOUDY    79  72  78 NE6       30.06S
MANNING        PTSUNNY   86  75  70 NE5       30.03S HX  95
CAMDEN         CLOUDY    73  73 100 N6        30.07F FOG
LANCASTER      LGT RAIN  72  72 100 NE5       30.08S
WINNSBORO      PTSUNNY   73  70  88 CALM      30.07F


...EASTERN AND COASTAL SOUTH CAROLINA...

CITY           SKY/WX    TMP DP  RH WIND       PRES   REMARKS
MYRTLE BEACH   LGT RAIN  79  73  83 S17       30.03F
N MYRTLE BCH   CLOUDY    80  73  79 S10       30.04F
CONWAY           N/A     77  77 100 CALM      30.04F
MARION         CLOUDY    79  73  83 E7        30.06S
HARTSVILLE     CLOUDY    79  70  73 CALM      30.07S
FLORENCE       CLOUDY    81  73  76 E8        30.05R
DARLINGTON     CLOUDY    77  72  83 CALM      30.07S
CHARLESTON APT PTSUNNY   89  72  56 E6        30.02S HX  96
MOUNT PLEASANT FAIR      82  75  78 E6        30.02F
BEAUFORT       PTSUNNY   86  75  69 NE5       30.02R HX  95


...EASTERN GEORGIA...

CITY           SKY/WX    TMP DP  RH WIND       PRES   REMARKS
AUGUSTA BUSH F CLOUDY    78  69  73 N6        30.05F
AUGUSTA DANIEL CLOUDY    75  68  78 N7        30.07F
THOMSON        CLOUDY    71  71 100 N7        30.11F
WASHINGTON     PTSUNNY   70 N/A N/A NE7       30.09F
CLAXTON        CLOUDY    81  79  94 N3        30.02S FOG
SYLVANIA       CLOUDY    79  76  90 N3        30.04S
STATESBORO     CLOUDY    78  78 100 NE8       30.03S
SAVANNAH       PTSUNNY   87  76  69 NE8       30.01F HX  97


...SOUTHERN NORTH CAROLINA...

CITY           SKY/WX    TMP DP  RH WIND       PRES   REMARKS
CHARLOTTE      CLOUDY    68  63  84 N8        30.11S
MONROE         CLOUDY    70  66  87 NE9       30.09F
WADESBORO      CLOUDY    69  67  94 N7        30.08S
ROCKINGHAM     LGT RAIN  75  72  88 E6        30.06S
RUTHERFORDTON  CLOUDY    67  63  87 N6        30.16R
ASHEVILLE      CLOUDY    67  59  75 VRB7      30.20R

$$



USA.gov is the U.S. government's official web portal to all federal, state and local government web resources and services.